Location: Heisler
(52.6701°N, 112.2239°W)
Time: 14:25:26
(UTC+00:00)

Envisat - Pass Details

Date: 04 December 2021
Orbit: 764 x 766 km, 98.2° (Epoch: 26 January)

Event Time Altitude Azimuth Distance (km) Brightness Sun altitude
Rises 12:10:33 0° 18° (NNE) 3,248 6.5 -27.9°
Reaches altitude 10° 12:12:58 10° 24° (NNE) 2,317 5.7 -27.5°
Maximum altitude 12:17:54 48° 99° (E) 1,000 3.9 -26.7°
Drops below altitude 10° 12:22:48 10° 173° (S) 2,299 5.6 -26.0°
Sets 12:25:10 0° 179° (S) 3,220 6.3 -25.6°
